This is the latest recevied weather packets stored in our database for station/object WD8EHT. If no packets are shown the sender has not sent any weather packets the latest 1 day(s).
| Time | Temp. | Humidity | Pressure | Rain* | Wind** | Luminosity | Snow |
|---|---|---|---|---|---|---|---|
| 1778032868 | 8.33° C | 64% | 1006.9 hPa | 0 mm | - | 0 W/m² | - |
| 1778032262 | 8.89° C | 57% | 1007.1 hPa | 0 mm | - | 0 W/m² | - |
| 1778031960 | 8.89° C | 55% | 1007.5 hPa | 0 mm | - | 0 W/m² | - |
| 1778031655 | 8.89° C | 55% | 1007.2 hPa | 0 mm | - | 0 W/m² | - |
| 1778031353 | 8.89° C | 54% | 1007 hPa | 0 mm | - | 0 W/m² | - |
| 1778031050 | 8.89° C | 54% | 1007 hPa | 0 mm | - | 0 W/m² | - |
| 1778030746 | 8.89° C | 52% | 1006.9 hPa | 0 mm | - | 0 W/m² | - |
| 1778030443 | 8.89° C | 51% | 1006.8 hPa | 0 mm | - | 0 W/m² | - |
| 1778030141 | 9.44° C | 52% | 1007 hPa | 0 mm | - | 0 W/m² | - |
| 1778029836 | 9.44° C | 51% | 1006.7 hPa | 0 mm | - | 0 W/m² | - |
| 1778029531 | 9.44° C | 51% | 1006.9 hPa | 0 mm | - | 0 W/m² | - |
| 1778029227 | 9.44° C | 50% | 1006.6 hPa | 0 mm | - | 0 W/m² | - |
| 1778028924 | 9.44° C | 51% | 1006.7 hPa | 0 mm | - | 0 W/m² | - |
| 1778028620 | 10° C | 52% | 1006.7 hPa | 0 mm | - | 0 W/m² | - |
| 1778027710 | 10.56° C | 52% | 1006.8 hPa | 0 mm | - | 2 W/m² | - |
| 1778026798 | 10.56° C | 50% | 1006.8 hPa | 0 mm | - | 6 W/m² | - |
| 1778026495 | 10.56° C | 49% | 1006.8 hPa | 0 mm | - | 9 W/m² | - |
| 1778025285 | 10.56° C | 50% | 1006.7 hPa | 0 mm | - | 16 W/m² | - |
| 1778024679 | 10.56° C | 48% | 1006.6 hPa | 0 mm | - | 16 W/m² | - |
| 1778022258 | 11.11° C | 45% | 1006.5 hPa | 0 mm | - | 30 W/m² | - |
| 1778021954 | 11.11° C | 45% | 1006.5 hPa | 0 mm | - | 42 W/m² | - |
| 1778020741 | 11.11° C | 45% | 1006.2 hPa | 0 mm | - | 43 W/m² | - |
| 1778020438 | 11.11° C | 45% | 1006.4 hPa | 0 mm | - | 77 W/m² | - |
| 1778019224 | 11.11° C | 45% | 1006.5 hPa | 0 mm | - | 102 W/m² | - |
| 1778014379 | 12.22° C | 41% | 1006.4 hPa | 0 mm | - | 223 W/m² | - |
* Rain latest hour (hover to see other rain measurements)
** Current wind speed in m/s (hover to see current wind gust speed)